Starlink 5069

operational
NORAD ID: 55640 Int'l Des: 2023-021 Owner: SPXS Country: US Constellation: starlink
LEOCIRCULAR

Über Starlink 5069

Beschreibung wird geladen...

Live-Position

3D-Globus wird geladen...

Nächste Überflüge

Höhenverlauf

Altitude vs Time

uPlot chart will show altitude changes over time

Zweizeiliger Elementsatz

1 55640U 23021N 25257.45175375 .00000376 00000-0 39325-4 0 9998
2 55640 69.9975 268.7716 0003971 268.9721 91.0983 14.98331555142392
Epoch: 14. Sept. 2025 • Age: 27 hours

Aktueller Status

Höhe 587.5 km
Geschwindigkeit 7.57 km/s
Subsatellitenpunkt -47.25°S, 88.33°W
Startdatum 17. Feb. 2023
Alter 2.5 years
Typ internet

Technische Details

Klassifizierung Payload
Masse 305.00 kg
Trockenmasse 290.00 kg
Gesamtmasse 305.00 kg
Länge 0.20 m
Durchmesser 2.80 m
Spannweite 9.00 m
Form Box + pan
Hersteller SPXS
Bus-Typ Starlink
Phasenstatus In Orbit
Besitzer/Staat SPXS/US

Große Konstellationen

Loading constellations...